Time,TemperatureF,DewpointF,PressureIn,WindDirection,WindDirectionDegrees,WindSpeedMPH,WindSpeedGustMPH,Humidity,HourlyPrecipIn,Conditions,Clouds,dailyrainin,SoftwareType,DateUTC
2013-04-03 00:00:00,30.0,20.0,-100.00,NNW,330,3.0,6.0,64,-99.99,,,-99.99,,2013-04-03 05:00:00,
2013-04-03 00:02:00,31.0,20.0,-100.00,NW,315,5.0,9.0,63,-99.99,,,-99.99,,2013-04-03 05:02:00,
2013-04-03 00:12:00,31.0,19.0,-100.00,NW,310,4.0,8.0,63,-99.99,,,-99.99,,2013-04-03 05:12:00,
2013-04-03 00:22:00,31.0,20.0,-100.00,NW,320,4.0,6.0,65,-99.99,,,-99.99,,2013-04-03 05:22:00,
2013-04-03 00:32:00,31.0,20.0,-100.00,NW,320,4.0,6.0,65,-99.99,,,-99.99,,2013-04-03 05:32:00,
2013-04-03 00:42:00,30.0,20.0,-100.00,NNW,330,3.0,6.0,64,-99.99,,,-99.99,,2013-04-03 05:42:00,
2013-04-03 00:52:00,30.0,20.0,-100.00,NNW,330,3.0,6.0,64,-99.99,,,-99.99,,2013-04-03 05:52:00,
2013-04-03 01:12:00,28.0,19.0,-100.00,West,260,0.0,4.0,68,-99.99,,,-99.99,,2013-04-03 06:12:00,
2013-04-03 01:22:00,28.0,19.0,-100.00,ESE,110,0.0,4.0,68,-99.99,,,-99.99,,2013-04-03 06:22:00,
2013-04-03 01:32:00,28.0,19.0,-100.00,ESE,110,0.0,4.0,68,-99.99,,,-99.99,,2013-04-03 06:32:00,
2013-04-03 01:42:00,27.0,19.0,-100.00,West,275,0.0,4.0,70,-99.99,,,-99.99,,2013-04-03 06:42:00,
2013-04-03 01:52:00,27.0,19.0,-100.00,SE,135,0.0,0.0,70,-99.99,,,-99.99,,2013-04-03 06:52:00,
2013-04-03 02:02:00,27.0,19.0,-100.00,SE,135,0.0,0.0,70,-99.99,,,-99.99,,2013-04-03 07:02:00,
2013-04-03 02:12:00,27.0,18.0,-100.00,SE,140,0.0,2.0,70,-99.99,,,-99.99,,2013-04-03 07:12:00,
2013-04-03 02:23:00,27.0,18.0,-100.00,West,260,0.0,0.0,69,-99.99,,,-99.99,,2013-04-03 07:23:00,
2013-04-03 02:32:00,27.0,18.0,-100.00,West,260,0.0,0.0,69,-99.99,,,-99.99,,2013-04-03 07:32:00,
2013-04-03 02:42:00,27.0,18.0,-100.00,West,260,0.0,0.0,68,-99.99,,,-99.99,,2013-04-03 07:42:00,
2013-04-03 02:53:00,26.0,17.0,-100.00,West,265,0.0,0.0,68,-99.99,,,-99.99,,2013-04-03 07:53:00,
2013-04-03 03:03:00,26.0,17.0,-100.00,West,265,0.0,0.0,68,-99.99,,,-99.99,,2013-04-03 08:03:00,
2013-04-03 03:12:00,28.0,18.0,-100.00,North,350,0.0,4.0,66,-99.99,,,-99.99,,2013-04-03 08:12:00,
2013-04-03 03:22:00,27.0,18.0,-100.00,NE,40,0.0,4.0,68,-99.99,,,-99.99,,2013-04-03 08:22:00,
2013-04-03 03:32:00,27.0,18.0,-100.00,NE,40,0.0,4.0,68,-99.99,,,-99.99,,2013-04-03 08:32:00,
2013-04-03 03:42:00,26.0,17.0,-100.00,West,260,0.0,0.0,69,-99.99,,,-99.99,,2013-04-03 08:42:00,
2013-04-03 03:52:00,26.0,18.0,-100.00,East,100,0.0,4.0,71,-99.99,,,-99.99,,2013-04-03 08:52:00,
2013-04-03 04:02:00,26.0,18.0,-100.00,East,100,0.0,4.0,71,-99.99,,,-99.99,,2013-04-03 09:02:00,
2013-04-03 04:12:00,27.0,17.0,-100.00,NW,320,0.0,3.0,68,-99.99,,,-99.99,,2013-04-03 09:12:00,
2013-04-03 04:22:00,26.0,17.0,-100.00,NW,320,0.0,1.0,67,-99.99,,,-99.99,,2013-04-03 09:22:00,
2013-04-03 04:33:00,26.0,17.0,-100.00,NW,320,0.0,1.0,67,-99.99,,,-99.99,,2013-04-03 09:33:00,
2013-04-03 04:43:00,27.0,18.0,-100.00,North,5,0.0,5.0,67,-99.99,,,-99.99,,2013-04-03 09:43:00,
2013-04-03 04:53:00,28.0,17.0,-100.00,North,5,0.0,2.0,65,-99.99,,,-99.99,,2013-04-03 09:53:00,
2013-04-03 05:03:00,28.0,17.0,-100.00,North,5,0.0,2.0,65,-99.99,,,-99.99,,2013-04-03 10:03:00,
2013-04-03 05:12:00,27.0,17.0,-100.00,NW,325,0.0,4.0,67,-99.99,,,-99.99,,2013-04-03 10:12:00,
2013-04-03 05:22:00,27.0,18.0,-100.00,NW,320,0.0,6.0,68,-99.99,,,-99.99,,2013-04-03 10:22:00,
2013-04-03 05:33:00,27.0,18.0,-100.00,NW,320,0.0,6.0,68,-99.99,,,-99.99,,2013-04-03 10:33:00,
2013-04-03 05:43:00,26.0,17.0,-100.00,SSW,210,0.0,3.0,71,-99.99,,,-99.99,,2013-04-03 10:43:00,
2013-04-03 05:53:00,27.0,18.0,-100.00,NNE,15,0.0,2.0,69,-99.99,,,-99.99,,2013-04-03 10:53:00,
2013-04-03 06:02:00,27.0,18.0,-100.00,NNE,15,0.0,2.0,69,-99.99,,,-99.99,,2013-04-03 11:02:00,
2013-04-03 06:12:00,26.0,18.0,-100.00,NW,325,0.0,4.0,71,-99.99,,,-99.99,,2013-04-03 11:12:00,
2013-04-03 06:22:00,25.0,18.0,-100.00,North,355,0.0,4.0,73,-99.99,,,-99.99,,2013-04-03 11:22:00,
2013-04-03 06:32:00,25.0,18.0,-100.00,North,355,0.0,4.0,73,-99.99,,,-99.99,,2013-04-03 11:32:00,
2013-04-03 06:42:00,25.0,17.0,-100.00,ENE,75,0.0,1.0,72,-99.99,,,-99.99,,2013-04-03 11:42:00,
2013-04-03 06:53:00,27.0,19.0,-100.00,ENE,60,0.0,1.0,72,-99.99,,,-99.99,,2013-04-03 11:53:00,
2013-04-03 07:02:00,27.0,19.0,-100.00,ENE,60,0.0,1.0,72,-99.99,,,-99.99,,2013-04-03 12:02:00,
2013-04-03 07:13:00,27.0,19.0,-100.00,NNE,25,0.0,4.0,73,-99.99,,,-99.99,,2013-04-03 12:13:00,
2013-04-03 07:22:00,27.0,19.0,-100.00,North,355,0.0,3.0,73,-99.99,,,-99.99,,2013-04-03 12:22:00,
2013-04-03 07:32:00,27.0,19.0,-100.00,North,355,0.0,3.0,73,-99.99,,,-99.99,,2013-04-03 12:32:00,
2013-04-03 07:42:00,27.0,20.0,-100.00,North,350,0.0,4.0,74,-99.99,,,-99.99,,2013-04-03 12:42:00,
2013-04-03 07:52:00,28.0,20.0,-100.00,North,355,0.0,4.0,73,-99.99,,,-99.99,,2013-04-03 12:52:00,
2013-04-03 08:02:00,28.0,20.0,-100.00,North,355,0.0,4.0,73,-99.99,,,-99.99,,2013-04-03 13:02:00,
2013-04-03 08:12:00,28.0,21.0,-100.00,NE,40,0.0,4.0,72,-99.99,,,-99.99,,2013-04-03 13:12:00,
2013-04-03 08:22:00,29.0,21.0,-100.00,ESE,105,0.0,2.0,70,-99.99,,,-99.99,,2013-04-03 13:22:00,
2013-04-03 08:32:00,29.0,21.0,-100.00,ESE,105,0.0,2.0,70,-99.99,,,-99.99,,2013-04-03 13:32:00,
2013-04-03 08:42:00,30.0,21.0,-100.00,NE,40,0.0,4.0,67,-99.99,,,-99.99,,2013-04-03 13:42:00,
2013-04-03 08:52:00,31.0,20.0,-100.00,ESE,110,1.0,7.0,61,-99.99,,,-99.99,,2013-04-03 13:52:00,
2013-04-03 09:02:00,31.0,20.0,-100.00,ESE,110,1.0,7.0,61,-99.99,,,-99.99,,2013-04-03 14:02:00,
2013-04-03 09:12:00,32.0,19.0,-100.00,NNE,20,0.0,6.0,58,-99.99,,,-99.99,,2013-04-03 14:12:00,
2013-04-03 09:22:00,33.0,18.0,-100.00,NNE,15,0.0,4.0,54,-99.99,,,-99.99,,2013-04-03 14:22:00,
2013-04-03 09:32:00,33.0,18.0,-100.00,NNE,15,0.0,4.0,54,-99.99,,,-99.99,,2013-04-03 14:32:00,
2013-04-03 09:42:00,34.0,16.0,-100.00,East,90,1.0,8.0,47,-99.99,,,-99.99,,2013-04-03 14:42:00,
2013-04-03 09:52:00,35.0,16.0,-100.00,ENE,75,4.0,9.0,45,-99.99,,,-99.99,,2013-04-03 14:52:00,
2013-04-03 10:02:00,35.0,16.0,-100.00,ENE,75,4.0,9.0,45,-99.99,,,-99.99,,2013-04-03 15:02:00,
2013-04-03 10:12:00,36.0,16.0,-100.00,NNE,25,6.0,10.0,44,-99.99,,,-99.99,,2013-04-03 15:12:00,
2013-04-03 10:23:00,36.0,16.0,-100.00,NNE,20,4.0,11.0,43,-99.99,,,-99.99,,2013-04-03 15:23:00,
2013-04-03 10:33:00,36.0,16.0,-100.00,NNE,20,4.0,11.0,43,-99.99,,,-99.99,,2013-04-03 15:33:00,
2013-04-03 10:42:00,37.0,17.0,-100.00,NNE,30,5.0,12.0,43,-99.99,,,-99.99,,2013-04-03 15:42:00,
2013-04-03 10:53:00,38.0,15.0,-100.00,SE,135,4.0,11.0,40,-99.99,,,-99.99,,2013-04-03 15:53:00,
2013-04-03 11:03:00,38.0,15.0,-100.00,SE,135,4.0,11.0,40,-99.99,,,-99.99,,2013-04-03 16:03:00,
2013-04-03 11:12:00,38.0,15.0,-100.00,ESE,110,4.0,10.0,39,-99.99,,,-99.99,,2013-04-03 16:12:00,
2013-04-03 11:24:00,39.0,15.0,-100.00,East,90,6.0,10.0,36,-99.99,,,-99.99,,2013-04-03 16:24:00,
2013-04-03 11:32:00,39.0,15.0,-100.00,East,90,6.0,10.0,36,-99.99,,,-99.99,,2013-04-03 16:32:00,
2013-04-03 11:43:00,39.0,13.0,-100.00,East,85,0.0,11.0,34,-99.99,,,-99.99,,2013-04-03 16:43:00,
2013-04-03 11:53:00,41.0,14.0,-100.00,SE,130,4.0,11.0,33,-99.99,,,-99.99,,2013-04-03 16:53:00,
2013-04-03 12:03:00,41.0,14.0,-100.00,SE,130,4.0,11.0,33,-99.99,,,-99.99,,2013-04-03 17:03:00,
2013-04-03 12:13:00,41.0,12.0,-100.00,SE,135,9.0,13.0,31,-99.99,,,-99.99,,2013-04-03 17:13:00,
2013-04-03 12:23:00,41.0,12.0,-100.00,SE,130,7.0,14.0,30,-99.99,,,-99.99,,2013-04-03 17:23:00,
2013-04-03 12:33:00,41.0,12.0,-100.00,SE,130,7.0,14.0,30,-99.99,,,-99.99,,2013-04-03 17:33:00,
2013-04-03 12:46:00,42.0,11.0,-100.00,SE,130,10.0,14.0,28,-99.99,,,-99.99,,2013-04-03 17:46:00,
2013-04-03 12:54:00,43.0,12.0,-100.00,SE,130,6.0,14.0,28,-99.99,,,-99.99,,2013-04-03 17:54:00,
2013-04-03 13:02:00,43.0,12.0,-100.00,SE,130,6.0,14.0,28,-99.99,,,-99.99,,2013-04-03 18:02:00,
2013-04-03 13:13:00,43.0,11.0,-100.00,ESE,120,1.0,13.0,27,-99.99,,,-99.99,,2013-04-03 18:13:00,
2013-04-03 13:22:00,44.0,13.0,-100.00,ENE,70,5.0,10.0,27,-99.99,,,-99.99,,2013-04-03 18:22:00,
2013-04-03 13:33:00,44.0,13.0,-100.00,ENE,70,5.0,10.0,27,-99.99,,,-99.99,,2013-04-03 18:33:00,
2013-04-03 13:43:00,44.0,10.0,-100.00,ESE,115,5.0,10.0,25,-99.99,,,-99.99,,2013-04-03 18:43:00,
2013-04-03 13:52:00,45.0,11.0,-100.00,NE,35,7.0,12.0,25,-99.99,,,-99.99,,2013-04-03 18:52:00,
2013-04-03 14:03:00,45.0,11.0,-100.00,NE,35,7.0,12.0,25,-99.99,,,-99.99,,2013-04-03 19:03:00,
2013-04-03 14:12:00,45.0,11.0,-100.00,ESE,115,4.0,13.0,25,-99.99,,,-99.99,,2013-04-03 19:12:00,
2013-04-03 14:22:00,46.0,13.0,-100.00,South,180,4.0,11.0,26,-99.99,,,-99.99,,2013-04-03 19:22:00,
2013-04-03 14:32:00,46.0,13.0,-100.00,South,180,4.0,11.0,26,-99.99,,,-99.99,,2013-04-03 19:32:00,
2013-04-03 14:42:00,47.0,12.0,-100.00,ENE,75,4.0,9.0,24,-99.99,,,-99.99,,2013-04-03 19:42:00,
2013-04-03 14:52:00,46.0,13.0,-100.00,North,0,4.0,11.0,25,-99.99,,,-99.99,,2013-04-03 19:52:00,
2013-04-03 15:02:00,46.0,13.0,-100.00,North,0,4.0,11.0,25,-99.99,,,-99.99,,2013-04-03 20:02:00,
2013-04-03 15:12:00,50.0,14.0,-100.00,SW,230,1.0,10.0,24,-99.99,,,-99.99,,2013-04-03 20:12:00,
2013-04-03 15:23:00,48.0,10.0,-100.00,NE,40,6.0,11.0,21,-99.99,,,-99.99,,2013-04-03 20:23:00,
2013-04-03 15:32:00,48.0,10.0,-100.00,NE,40,6.0,11.0,21,-99.99,,,-99.99,,2013-04-03 20:32:00,
2013-04-03 15:42:00,48.0,12.0,-100.00,ESE,120,2.0,14.0,23,-99.99,,,-99.99,,2013-04-03 20:42:00,
2013-04-03 15:53:00,48.0,12.0,-100.00,East,85,4.0,13.0,23,-99.99,,,-99.99,,2013-04-03 20:53:00,
2013-04-03 16:02:00,48.0,12.0,-100.00,East,85,4.0,13.0,23,-99.99,,,-99.99,,2013-04-03 21:02:00,
2013-04-03 16:12:00,48.0,12.0,-100.00,East,90,4.0,13.0,23,-99.99,,,-99.99,,2013-04-03 21:12:00,
2013-04-03 16:22:00,47.0,13.0,-100.00,ESE,105,5.0,12.0,24,-99.99,,,-99.99,,2013-04-03 21:22:00,
2013-04-03 16:33:00,47.0,13.0,-100.00,ESE,105,5.0,12.0,24,-99.99,,,-99.99,,2013-04-03 21:33:00,
2013-04-03 16:42:00,48.0,12.0,-100.00,ESE,110,2.0,8.0,23,-99.99,,,-99.99,,2013-04-03 21:42:00,
2013-04-03 16:52:00,48.0,12.0,-100.00,ENE,65,5.0,9.0,23,-99.99,,,-99.99,,2013-04-03 21:52:00,
2013-04-03 17:02:00,48.0,12.0,-100.00,ENE,65,5.0,9.0,23,-99.99,,,-99.99,,2013-04-03 22:02:00,
2013-04-03 17:12:00,48.0,12.0,-100.00,NNE,25,4.0,11.0,23,-99.99,,,-99.99,,2013-04-03 22:12:00,
2013-04-03 17:22:00,49.0,12.0,-100.00,SSE,160,0.0,9.0,22,-99.99,,,-99.99,,2013-04-03 22:22:00,
2013-04-03 17:32:00,49.0,12.0,-100.00,SSE,160,0.0,9.0,22,-99.99,,,-99.99,,2013-04-03 22:32:00,
2013-04-03 17:42:00,48.0,13.0,-100.00,SSW,195,1.0,14.0,24,-99.99,,,-99.99,,2013-04-03 22:42:00,
2013-04-03 17:52:00,49.0,12.0,-100.00,East,90,2.0,9.0,23,-99.99,,,-99.99,,2013-04-03 22:52:00,
2013-04-03 18:02:00,49.0,12.0,-100.00,East,90,2.0,9.0,23,-99.99,,,-99.99,,2013-04-03 23:02:00,
2013-04-03 18:12:00,48.0,11.0,-100.00,ESE,115,6.0,11.0,22,-99.99,,,-99.99,,2013-04-03 23:12:00,
2013-04-03 18:22:00,48.0,11.0,-100.00,SE,130,6.0,11.0,22,-99.99,,,-99.99,,2013-04-03 23:22:00,
2013-04-03 18:32:00,48.0,12.0,-100.00,SE,135,0.0,9.0,23,-99.99,,,-99.99,,2013-04-03 23:32:00,
2013-04-03 18:42:00,48.0,12.0,-100.00,SE,135,0.0,9.0,23,-99.99,,,-99.99,,2013-04-03 23:42:00,
2013-04-03 18:54:00,48.0,12.0,-100.00,East,85,7.0,10.0,23,-99.99,,,-99.99,,2013-04-03 23:54:00,
2013-04-03 19:03:00,48.0,12.0,-100.00,East,85,7.0,10.0,23,-99.99,,,-99.99,,2013-04-04 00:03:00,
2013-04-03 19:12:00,47.0,12.0,-100.00,ESE,105,0.0,8.0,24,-99.99,,,-99.99,,2013-04-04 00:12:00,
2013-04-03 19:22:00,48.0,11.0,-100.00,ESE,120,6.0,8.0,22,-99.99,,,-99.99,,2013-04-04 00:22:00,
2013-04-03 19:32:00,48.0,11.0,-100.00,ESE,120,6.0,8.0,22,-99.99,,,-99.99,,2013-04-04 00:32:00,
2013-04-03 19:43:00,47.0,11.0,-100.00,East,100,4.0,9.0,23,-99.99,,,-99.99,,2013-04-04 00:43:00,
2013-04-03 19:52:00,47.0,12.0,-100.00,East,95,2.0,7.0,24,-99.99,,,-99.99,,2013-04-04 00:52:00,
2013-04-03 20:02:00,47.0,12.0,-100.00,East,95,2.0,7.0,24,-99.99,,,-99.99,,2013-04-04 01:02:00,
2013-04-03 20:12:00,45.0,13.0,-100.00,East,100,0.0,5.0,26,-99.99,,,-99.99,,2013-04-04 01:12:00,
2013-04-03 20:22:00,45.0,13.0,-100.00,East,95,1.0,4.0,27,-99.99,,,-99.99,,2013-04-04 01:22:00,
2013-04-03 20:32:00,45.0,13.0,-100.00,East,95,1.0,4.0,27,-99.99,,,-99.99,,2013-04-04 01:32:00,
2013-04-03 20:43:00,44.0,13.0,-100.00,East,100,0.0,4.0,28,-99.99,,,-99.99,,2013-04-04 01:43:00,
2013-04-03 20:52:00,43.0,13.0,-100.00,East,90,0.0,4.0,29,-99.99,,,-99.99,,2013-04-04 01:52:00,
2013-04-03 21:02:00,43.0,13.0,-100.00,East,90,0.0,4.0,29,-99.99,,,-99.99,,2013-04-04 02:02:00,
2013-04-03 21:12:00,43.0,13.0,-100.00,East,100,1.0,4.0,30,-99.99,,,-99.99,,2013-04-04 02:12:00,
2013-04-03 21:22:00,40.0,15.0,-100.00,SE,130,0.0,4.0,36,-99.99,,,-99.99,,2013-04-04 02:22:00,
2013-04-03 21:32:00,40.0,15.0,-100.00,SE,130,0.0,4.0,36,-99.99,,,-99.99,,2013-04-04 02:32:00,
2013-04-03 21:42:00,40.0,15.0,-100.00,SE,130,0.0,4.0,36,-99.99,,,-99.99,,2013-04-04 02:42:00,
2013-04-03 22:02:00,39.0,15.0,-100.00,NNE,20,0.0,0.0,37,-99.99,,,-99.99,,2013-04-04 03:02:00,
2013-04-03 22:12:00,38.0,16.0,-100.00,SE,125,0.0,0.0,39,-99.99,,,-99.99,,2013-04-04 03:12:00,
2013-04-03 22:22:00,38.0,16.0,-100.00,SE,125,0.0,2.0,40,-99.99,,,-99.99,,2013-04-04 03:22:00,
2013-04-03 22:33:00,38.0,16.0,-100.00,SE,125,0.0,2.0,40,-99.99,,,-99.99,,2013-04-04 03:33:00,
2013-04-03 22:53:00,37.0,15.0,-100.00,East,100,0.0,1.0,40,-99.99,,,-99.99,,2013-04-04 03:53:00,
2013-04-03 23:03:00,37.0,15.0,-100.00,East,100,0.0,1.0,40,-99.99,,,-99.99,,2013-04-04 04:03:00,
2013-04-03 23:12:00,37.0,15.0,-100.00,SE,130,0.0,3.0,40,-99.99,,,-99.99,,2013-04-04 04:12:00,
2013-04-03 23:23:00,37.0,15.0,-100.00,ESE,120,0.0,4.0,41,-99.99,,,-99.99,,2013-04-04 04:23:00,
2013-04-03 23:33:00,37.0,15.0,-100.00,ESE,120,0.0,4.0,41,-99.99,,,-99.99,,2013-04-04 04:33:00,
2013-04-03 23:43:00,36.0,16.0,-100.00,SE,135,0.0,3.0,44,-99.99,,,-99.99,,2013-04-04 04:43:00,
2013-04-03 23:53:00,36.0,16.0,-100.00,SE,125,1.0,4.0,44,-99.99,,,-99.99,,2013-04-04 04:53:00,